• In Hungary
  • List of Countries
  • For 7 days
  • Water Temperature
  • Satellite Maps
  • Weather Map
  • News
  • Weather Widgets
  • user-avatar
    Login

    Hourly Weather Chrobakowe

    Today, 21 July, Saturday

    Time Temperature Precipitation Wind Pressure Humidity
    00:00 +18°C° 0 mm 1 mps 735 mmHg 77%
    01:00 +18°C° 0 mm 1 mps 735 mmHg 74%
    02:00 +16°C° 0 mm 1 mps 735 mmHg 75%
    03:00 +16°C° 0 mm 1 mps 735 mmHg 75%
    04:00 +16°C° 0 mm 1 mps 735 mmHg 76%
    05:00 +18°C° 0 mm 1 mps 735 mmHg 72%
    06:00 +20°C° 0 mm 1 mps 735 mmHg 67%
    07:00 +22°C° 0 mm 1 mps 736 mmHg 63%
    08:00 +23°C° 0 mm 1 mps 736 mmHg 57%
    09:00 +25°C° 0 mm 1 mps 736 mmHg 52%
    10:00 +26°C° 0 mm 1 mps 736 mmHg 47%
    11:00 +27°C° 0 mm 1 mps 735 mmHg 44%
    12:00 +28°C° 0 mm 1 mps 735 mmHg 42%
    13:00 +28°C° 0 mm 2 mps 735 mmHg 40%
    14:00 +28°C° 0 mm 1 mps 735 mmHg 40%
    15:00 +28°C° 0 mm 1 mps 735 mmHg 40%
    16:00 +29°C° 0 mm 1 mps 734 mmHg 40%
    17:00 +27°C° 0 mm 1 mps 734 mmHg 45%
    18:00 +26°C° 0 mm 1 mps 734 mmHg 51%
    19:00 +24°C° 0 mm 1 mps 734 mmHg 57%
    20:00 +23°C° 0 mm 1 mps 734 mmHg 59%
    21:00 +21°C° 0 mm 2 mps 734 mmHg 61%
    22:00 +20°C° 0 mm 2 mps 734 mmHg 63%
    23:00 +19°C° 0 mm 2 mps 734 mmHg 65%

    Tomorrow, 22 July, Sunday

    Time Temperature Precipitation Wind Pressure Humidity
    00:00 +19°C° 0 mm 2 mps 734 mmHg 67%
    01:00 +18°C° 0 mm 2 mps 734 mmHg 68%
    02:00 +19°C° 0 mm 1 mps 734 mmHg 70%
    03:00 +18°C° 0 mm 1 mps 734 mmHg 72%
    04:00 +18°C° 0 mm 1 mps 734 mmHg 75%
    05:00 +20°C° 0 mm 1 mps 734 mmHg 71%
    06:00 +21°C° 0 mm 1 mps 734 mmHg 68%
    07:00 +23°C° 0 mm 2 mps 734 mmHg 65%
    08:00 +24°C° 0 mm 2 mps 734 mmHg 59%
    09:00 +26°C° 0 mm 2 mps 734 mmHg 54%
    10:00 +27°C° 0 mm 3 mps 734 mmHg 48%
    11:00 +28°C° 0 mm 3 mps 734 mmHg 46%
    12:00 +28°C° 0 mm 3 mps 734 mmHg 44%
    13:00 +29°C° 0 mm 3 mps 733 mmHg 42%
    14:00 +29°C° 0 mm 3 mps 733 mmHg 43%
    15:00 +29°C° 0 mm 3 mps 733 mmHg 43%
    16:00 +29°C° 0 mm 3 mps 733 mmHg 44%
    17:00 +27°C° 0 mm 3 mps 733 mmHg 50%
    18:00 +26°C° 0 mm 3 mps 733 mmHg 56%
    19:00 +24°C° 0 mm 2 mps 733 mmHg 62%
    20:00 +23°C° 0 mm 2 mps 733 mmHg 65%
    21:00 +21°C° 0 mm 2 mps 733 mmHg 68%
    22:00 +20°C° 0 mm 2 mps 734 mmHg 71%
    23:00 +19°C° 0 mm 2 mps 734 mmHg 73%

    Day after tomorrow, 23 July, Monday

    Time Temperature Precipitation Wind Pressure Humidity
    00:00 +19°C° 0 mm 2 mps 734 mmHg 75%
    01:00 +20°C° 0 mm 1 mps 734 mmHg 76%
    02:00 +19°C° 0 mm 1 mps 734 mmHg 78%
    03:00 +19°C° 0 mm 1 mps 734 mmHg 80%
    04:00 +18°C° 0 mm 1 mps 734 mmHg 82%
    05:00 +20°C° 0 mm 1 mps 734 mmHg 78%
    06:00 +20°C° 0 mm 2 mps 734 mmHg 74%
    07:00 +23°C° 0 mm 2 mps 734 mmHg 70%
    08:00 +24°C° 0 mm 2 mps 735 mmHg 64%
    09:00 +25°C° 0 mm 3 mps 735 mmHg 58%
    10:00 +27°C° 0 mm 3 mps 735 mmHg 52%
    11:00 +27°C° 0.1 mm 3 mps 734 mmHg 51%
    12:00 +27°C° 0.1 mm 4 mps 734 mmHg 51%
    13:00 +28°C° 0.1 mm 4 mps 734 mmHg 51%
    14:00 +28°C° 0.1 mm 4 mps 734 mmHg 51%
    15:00 +28°C° 0.1 mm 4 mps 734 mmHg 52%
    16:00 +28°C° 0.1 mm 4 mps 734 mmHg 52%
    17:00 +26°C° 0 mm 4 mps 734 mmHg 57%
    18:00 +25°C° 0 mm 3 mps 734 mmHg 61%
    19:00 +24°C° 0 mm 3 mps 735 mmHg 65%
    20:00 +22°C° 0 mm 3 mps 735 mmHg 68%
    21:00 +21°C° 0 mm 3 mps 735 mmHg 70%
    22:00 +20°C° 0 mm 2 mps 735 mmHg 73%
    23:00 +19°C° 0 mm 2 mps 735 mmHg 76%

    24 July, Tuesday

    Time Temperature Precipitation Wind Pressure Humidity
    00:00 +19°C° 0 mm 2 mps 735 mmHg 78%
    01:00 +18°C° 0 mm 2 mps 735 mmHg 81%
    02:00 +18°C° 0 mm 2 mps 735 mmHg 83%
    03:00 +18°C° 0 mm 2 mps 735 mmHg 85%
    04:00 +17°C° 0 mm 2 mps 735 mmHg 87%
    05:00 +19°C° 0 mm 2 mps 736 mmHg 83%
    06:00 +20°C° 0 mm 2 mps 736 mmHg 78%
    07:00 +21°C° 0 mm 2 mps 736 mmHg 74%
    08:00 +24°C° 0.3 mm 3 mps 736 mmHg 69%
    09:00 +25°C° 0.3 mm 3 mps 736 mmHg 64%
    10:00 +26°C° 0.3 mm 4 mps 736 mmHg 60%
    11:00 +27°C° 0.4 mm 4 mps 736 mmHg 58%
    12:00 +27°C° 0.4 mm 4 mps 736 mmHg 56%
    13:00 +28°C° 0.4 mm 4 mps 735 mmHg 54%
    14:00 +28°C° 0.2 mm 4 mps 735 mmHg 55%
    15:00 +27°C° 0.2 mm 4 mps 735 mmHg 55%
    16:00 +27°C° 0.2 mm 4 mps 735 mmHg 55%
    17:00 +26°C° 0.1 mm 3 mps 735 mmHg 60%
    18:00 +25°C° 0.1 mm 3 mps 735 mmHg 65%
    19:00 +24°C° 0.1 mm 2 mps 735 mmHg 70%
    20:00 +23°C° 0 mm 2 mps 735 mmHg 73%
    21:00 +21°C° 0 mm 2 mps 735 mmHg 76%
    22:00 +20°C° 0 mm 2 mps 736 mmHg 78%
    23:00 +20°C° 0 mm 1 mps 736 mmHg 80%

    25 July, Wednesday

    Time Temperature Precipitation Wind Pressure Humidity
    00:00 +20°C° 0 mm 1 mps 736 mmHg 82%
    01:00 +19°C° 0 mm 1 mps 736 mmHg 83%
    02:00 +19°C° 0 mm 1 mps 736 mmHg 85%
    03:00 +19°C° 0 mm 1 mps 736 mmHg 86%
    04:00 +18°C° 0 mm 1 mps 736 mmHg 88%
    05:00 +20°C° 0 mm 1 mps 736 mmHg 83%
    06:00 +21°C° 0 mm 1 mps 736 mmHg 79%
    07:00 +21°C° 0 mm 2 mps 737 mmHg 74%
    08:00 +24°C° 0.2 mm 2 mps 737 mmHg 69%
    09:00 +25°C° 0.2 mm 2 mps 737 mmHg 64%
    10:00 +26°C° 0.2 mm 3 mps 737 mmHg 59%
    11:00 +27°C° 0.1 mm 3 mps 736 mmHg 56%
    12:00 +28°C° 0.1 mm 3 mps 736 mmHg 52%
    13:00 +28°C° 0.1 mm 3 mps 736 mmHg 49%
    14:00 +28°C° 0 mm 3 mps 736 mmHg 49%
    15:00 +28°C° 0 mm 3 mps 736 mmHg 49%
    16:00 +28°C° 0 mm 3 mps 735 mmHg 49%
    17:00 +27°C° 0 mm 3 mps 735 mmHg 54%
    18:00 +26°C° 0 mm 3 mps 736 mmHg 59%
    19:00 +24°C° 0 mm 2 mps 736 mmHg 64%
    20:00 +23°C° 0 mm 2 mps 736 mmHg 67%
    21:00 +21°C° 0 mm 2 mps 736 mmHg 70%
    22:00 +20°C° 0 mm 2 mps 736 mmHg 73%
    23:00 +20°C° 0 mm 2 mps 736 mmHg 76%

    26 July, Thursday

    Time Temperature Precipitation Wind Pressure Humidity
    00:00 +19°C° 0 mm 2 mps 736 mmHg 79%
    01:00 +19°C° 0 mm 2 mps 736 mmHg 82%
    02:00 +18°C° 0 mm 2 mps 736 mmHg 85%
    03:00 +18°C° 0 mm 2 mps 736 mmHg 87%
    04:00 +19°C° 0 mm 1 mps 736 mmHg 89%
    05:00 +19°C° 0 mm 2 mps 737 mmHg 86%
    06:00 +21°C° 0 mm 2 mps 737 mmHg 83%
    07:00 +23°C° 0 mm 2 mps 737 mmHg 79%
    08:00 +24°C° 0.3 mm 2 mps 737 mmHg 75%
    09:00 +25°C° 0.3 mm 3 mps 737 mmHg 70%
    10:00 +27°C° 0.3 mm 3 mps 737 mmHg 65%
    11:00 +27°C° 0.7 mm 3 mps 737 mmHg 64%
    12:00 +28°C° 0.7 mm 3 mps 737 mmHg 63%
    13:00 +28°C° 0.7 mm 4 mps 737 mmHg 62%
    14:00 +28°C° 1.1 mm 3 mps 737 mmHg 64%
    15:00 +27°C° 1.1 mm 3 mps 737 mmHg 66%
    16:00 +27°C° 1.1 mm 3 mps 737 mmHg 68%
    17:00 +26°C° 0.6 mm 3 mps 737 mmHg 73%
    18:00 +25°C° 0.6 mm 2 mps 737 mmHg 77%
    19:00 +24°C° 0.6 mm 2 mps 737 mmHg 81%
    20:00 +24°C° 0.1 mm 2 mps 737 mmHg 83%
    21:00 +23°C° 0.1 mm 2 mps 737 mmHg 85%
    22:00 +22°C° 0.1 mm 1 mps 737 mmHg 87%
    23:00 +22°C° 0.1 mm 1 mps 737 mmHg 88%
    Show more